Weather History for Wenatchee, WA

Change the Weather History Date:

Friday, July 4, 2014

  Actual Average Record
Temperature  
Mean Temperature 70 °F 64 °F  
Max Temperature 81 °F 79 °F 103 °F (1968)
Min Temperature 58 °F 49 °F 46 °F (2005)
Degree Days  
Heating Degree Days 0 3  
Month to date heating degree days 0 13  
Since 1 June heating degree days 191 200  
Since 1 July heating degree days 0 13  
Cooling Degree Days 5 2  
Month to date cooling degree days 21 8  
Year to date cooling degree days 21 32  
Since 1 June cooling degree days 21 27  
Growing Degree Days 23 (Base 50)    
Moisture  
Dew Point 37 °F    
Average Humidity 0    
Maximum Humidity 0    
Minimum Humidity 0    
Precipitation  
Precipitation 0.00 in 0.03 in 0.15 in (1994)
Month to date precipitation T 0.13  
Year to date precipitation 9.75 9.51  
Snow  
Snow 0.00 in 0.00 in - ()
Month to date snowfall 0.0 0.0  
Since 1 June snowfall 0.0 0.0  
Since 1 July snowfall 0.0 0.0  
Snow Depth 0.00 in    
Sea Level Pressure  
Sea Level Pressure 29.88 in    
Wind  
Wind Speed 13 mph (NNW)    
Max Wind Speed 18 mph    
Max Gust Speed 0 mph    
Visibility 10 miles    
Events      
T = Trace of Precipitation, MM = Missing Value Source: NWS Daily Summary

Daily Weather History Graph

Daily Weather History Graph

Search for Another Location

Airport:

Trip Planner

Search our weather history database for the weather conditions in past years. The results will help you decide how hot, cold, wet, or windy it might be!

Date:

Astronomy

Jul. 04, 2014 Rise Set
Actual Time 5:10 AM PDT 9:00 PM PDT
Civil Twilight 4:30 AM PDT 9:39 PM PDT
Nautical Twilight 3:35 AM PDT 10:34 PM PDT
Astronomical Twilight 2:15 AM PDT 11:53 PM PDT
Moon 12:41 PM PDT (7/4) No Moon Set
Length of Visible Light 17h 09m
Length of Day
15h 50m
Waxing Crescent, 43% of the Moon is Illuminated
Jul 4
Waxing Crescent
Jul 5
First Quarter
Jul 12
Full
Jul 18
Last Quarter
Jul 26
New

Hourly Weather History & Observations

Time (PDT) Temp. Dew Point Humidity Pressure Visibility Wind Dir Wind Speed Gust Speed Precip Events Conditions
12:55 AM 68.0 °F 39.0 °F 35% 29.90 in 10.0 mi WNW 17.3 mph 27.6 mph N/A   Clear
1:55 AM 66.9 °F 39.9 °F 37% 29.89 in 10.0 mi NW 17.3 mph - N/A   Clear
2:55 AM 66.0 °F 39.9 °F 38% 29.89 in 10.0 mi NW 17.3 mph - N/A   Clear
3:55 AM 64.0 °F 39.9 °F 41% 29.90 in 10.0 mi NW 12.7 mph - N/A   Clear
4:55 AM 63.0 °F 39.9 °F 43% 29.91 in 10.0 mi NW 16.1 mph - N/A   Clear
5:55 AM 62.1 °F 39.9 °F 44% 29.93 in 10.0 mi NW 15.0 mph - N/A   Clear
6:55 AM 64.0 °F 41.0 °F 43% 29.93 in 10.0 mi NW 13.8 mph - N/A   Clear
7:55 AM 66.0 °F 39.9 °F 38% 29.93 in 10.0 mi NW 17.3 mph - N/A   Clear
8:55 AM 69.1 °F 39.9 °F 35% 29.93 in 10.0 mi NW 12.7 mph - N/A   Clear
9:55 AM 72.0 °F 37.9 °F 29% 29.92 in 10.0 mi NW 4.6 mph - N/A   Clear
10:55 AM 75.0 °F 37.9 °F 26% 29.90 in 10.0 mi Variable 4.6 mph - N/A   Clear
11:55 AM 78.1 °F 32.0 °F 19% 29.88 in 10.0 mi ESE 4.6 mph - N/A   Clear
12:55 PM 82.0 °F 27.0 °F 13% 29.86 in 10.0 mi East 4.6 mph - N/A   Clear
1:55 PM 84.9 °F 30.9 °F 14% 29.84 in 10.0 mi East 5.8 mph - N/A   Clear
2:55 PM 84.9 °F 32.0 °F 15% 29.84 in 10.0 mi SSE 8.1 mph - N/A   Clear
3:55 PM 84.9 °F 41.0 °F 21% 29.83 in 10.0 mi ESE 11.5 mph - N/A   Clear
4:55 PM 84.9 °F 39.9 °F 20% 29.82 in 10.0 mi ESE 9.2 mph - N/A   Clear
5:55 PM 84.0 °F 44.1 °F 25% 29.81 in 10.0 mi ESE 5.8 mph - N/A   Clear
6:55 PM 82.9 °F 42.1 °F 24% 29.81 in 10.0 mi ESE 6.9 mph - N/A   Clear
7:55 PM 82.9 °F 35.1 °F 18% 29.83 in 10.0 mi NNW 10.4 mph - N/A   Clear
8:55 PM 80.1 °F 35.1 °F 20% 29.84 in 10.0 mi NW 16.1 mph - N/A   Clear
9:55 PM 78.1 °F 34.0 °F 20% 29.88 in 10.0 mi NW 15.0 mph - N/A   Clear
10:55 PM 75.9 °F 30.9 °F 19% 29.89 in 10.0 mi WNW 18.4 mph - N/A   Clear
11:55 PM 73.9 °F 32.0 °F 21% 29.89 in 10.0 mi WNW 18.4 mph - N/A   Clear